Погода в Трубачеве

Россия / Томская область     56°40′28″N   84°14′32″E
темп.,
°C
ветер,
м/с
пор.,
м/с
влажн.,
%
обл.,
%
осадки,
мм/ч
давл.,
гПа
погр.,
м
26 января, вт
вт2601:00−41вюв019831 0.0 104318
04:00−41в119731 0.0 104318
07:00−42в119732 0.0 104318
10:00−42в119628 0.0 104318
13:00−35вюв129127 0.0 1043218
16:00−33юв139172 0.0 1042263
19:00−35юв249585 0.0 104189
22:00−32юв3793100 0.0 1039225
27 января, ср
ср2701:00−28ююв3798100 0.1 1035249
04:00−24ююв41098100 0.6 1030357
07:00−18ю51296100 1.6 1026603
10:00−14ююз51394100 1.3 1021643
13:00−10юз51192100 2.3 1019632
16:00−7юз51194100 0.7 1018636
19:00−4зюз51394100 1.6 1019669
22:00−3з4996100 0.4 1021546
28 января, чт
чт2801:00−11ссз3794100 1.3 1024375
04:00−16ссз1397100 0.2 1027109
07:00−18ссв1298100 0.4 102789
10:00−18в1198100 0.4 102854
13:00−13ююв2495100 0.9 1025224
16:00−6юз51292100 0.4 1020804
19:00−5юз61390100 0.6 1018786
22:00−5юз71490100 0.1 1014882
29 января, пт
пт2901:00−6юз61392100 0.7 10111037
04:00−3з61394100 2.2 10101111
07:00−4з51293100 2.8 1012791
10:00−4з51190100 0.1 1014860
13:00−4з61291100 0.2 10151104
16:00−4зсз51195100 0.9 1017861
19:00−13ссз5994100 2.2 1021578
22:00−24с3996100 0.1 1025299
30 января, сб
сб3001:00−30ссз259568 0.1 1029103
04:00−33сз23960 0.0 103332
07:00−35ссз22960 0.0 103526
10:00−36с229559 0.0 103844
13:00−32с128666 0.0 1038235
16:00−30св128885 0.0 1038242
19:00−30св239492 0.0 1038186
22:00−29в2493100 0.0 1036226